Theta_e
288 288 288 288 287 287 286 286 286 286 286 286 286 286 286 286 286 286 286 287 287 288 289 290 291 292 292 293 293 293 294 294 294 295 295 295 295 295 295 295 295 294 294 294 294 294 294 294 294 293 293 293 293 293 293 293 293 293 293 294 294 295 294 293 293 294 293 292 293 293 293 291 290 290 289 288 288 288 288 288 287 287 287 286 286
288 288 288 288 288 288 287 287 286 286 286 286 286 286 286 286 286 286 286 286 286 286 286 287 288 289 290 291 292 292 293 293 293 293 294 294 294 294 294 294 294 294 294 294 294 294 294 293 293 293 293 293 293 293 292 292 292 292 292 293 293 293 293 293 293 293 291 291 291 292 292 291 290 289 289 289 289 288 287 287 287 287 286 286 286
288 288 288 288 288 288 288 287 287 287 286 286 286 286 286 285 286 285 285 286 286 286 286 285 286 286 287 288 289 290 291 292 292 292 293 293 294 294 294 294 294 294 293 293 293 293 293 293 293 293 292 292 292 292 292 292 292 292 292 292 292 292 292 293 292 292 291 290 291 291 290 290 289 289 289 289 289 288 287 287 287 286 286 286 286
288 288 288 287 288 288 288 287 287 287 287 287 286 286 286 286 285 285 285 285 285 285 286 285 285 285 285 286 286 287 288 290 291 291 292 292 292 293 293 293 293 293 293 293 293 293 293 292 292 292 292 292 292 292 292 291 291 291 291 291 291 291 291 292 292 292 291 290 290 290 290 290 289 289 289 288 287 287 287 286 286 286 285 285 285
288 287 287 287 287 287 287 287 287 287 287 287 287 286 286 286 286 285 285 285 285 285 285 285 285 285 285 285 285 285 286 287 288 290 290 291 291 291 292 292 292 293 293 292 292 292 292 292 292 292 292 292 292 291 291 291 291 291 291 290 290 291 291 291 291 291 291 290 289 289 290 290 289 288 288 287 286 286 286 286 285 285 285 285 285
288 288 287 287 287 287 287 287 287 287 286 287 286 286 286 286 286 285 285 285 285 285 285 285 285 285 285 285 285 285 285 285 285 287 288 289 290 290 290 291 291 291 292 292 292 292 292 292 291 291 291 291 291 291 291 291 291 291 291 290 290 290 290 290 290 290 290 290 289 288 288 288 287 287 287 287 287 286 285 284 284 284 284 284 284
288 288 288 287 287 287 287 287 287 287 286 286 286 286 286 286 286 285 285 285 285 285 284 284 285 285 285 285 285 285 285 285 285 285 285 286 288 289 290 290 290 290 290 290 291 291 291 291 291 291 291 291 291 291 290 290 290 290 290 290 290 290 289 289 289 289 289 289 289 288 287 287 287 286 286 286 286 285 284 283 283 283 283 283 283
288 288 288 287 287 287 287 287 287 286 286 286 286 286 286 286 286 286 285 285 285 285 284 284 284 284 284 285 285 285 285 285 285 285 284 285 285 287 288 289 289 289 289 290 290 290 290 290 290 290 290 290 290 290 290 290 290 290 290 290 290 289 289 289 289 288 288 288 288 287 286 286 286 285 285 285 284 284 284 283 283 283 283 283 283
288 288 288 287 287 287 287 287 286 286 286 286 286 286 286 286 286 286 285 285 285 285 285 284 284 284 284 284 284 285 285 285 285 285 285 285 285 285 286 287 288 289 289 289 289 289 289 289 290 289 290 290 290 290 290 290 290 290 289 289 289 289 289 288 288 288 287 287 288 287 285 284 285 284 284 284 284 284 284 283 283 283 283 283 283
288 288 288 287 287 287 286 286 286 286 286 285 285 285 285 285 285 285 285 285 285 285 285 284 284 284 284 284 284 284 285 285 285 285 285 285 285 285 285 285 286 287 288 289 289 289 289 289 289 289 289 289 289 289 289 289 290 290 289 289 289 289 288 288 288 288 287 287 287 287 285 284 284 284 284 284 284 284 284 283 283 283 283 282 282
288 288 287 287 287 287 286 286 286 285 285 285 285 285 285 285 285 285 285 285 284 284 284 284 284 284 284 284 284 284 285 285 284 285 285 285 285 285 285 284 284 285 286 287 288 288 288 289 289 289 289 289 289 289 289 289 289 289 289 289 289 289 288 288 288 288 287 287 287 287 286 285 285 284 284 284 284 284 284 283 283 283 282 282 282
286 286 286 286 286 286 286 286 285 285 285 285 285 285 285 285 284 284 284 284 284 284 283 283 283 283 283 283 284 284 284 284 284 284 285 285 285 285 285 285 285 284 284 285 286 287 288 288 288 288 289 289 289 289 289 289 289 289 289 289 289 289 289 288 288 288 287 287 287 287 287 286 286 285 284 284 283 283 284 283 283 283 283 283 283
285 284 285 285 285 285 285 285 285 285 285 284 284 284 284 284 284 284 284 284 284 283 283 283 282 282 282 282 283 283 284 284 284 284 284 284 284 285 285 285 285 285 285 285 285 286 287 287 288 288 288 288 288 289 289 289 289 288 288 288 288 288 288 288 288 288 288 287 287 287 287 287 287 285 285 284 283 283 283 283 283 283 283 284 284
283 283 283 283 283 283 283 284 284 284 284 284 283 283 284 284 284 283 283 283 283 283 283 282 282 282 281 281 282 282 283 283 283 283 284 284 284 284 285 285 285 285 285 285 285 286 286 287 287 287 288 288 288 288 288 288 288 288 288 288 288 288 288 288 288 288 288 287 287 287 287 287 287 287 286 285 284 283 283 283 283 284 284 285 285
281 281 281 281 281 281 282 282 282 282 281 281 281 282 282 282 282 282 282 282 282 282 282 281 281 281 281 280 281 281 281 282 282 283 284 284 284 285 285 285 285 285 285 285 285 285 285 286 287 287 287 287 288 288 288 288 288 288 288 287 287 287 288 288 288 288 288 288 287 287 287 287 287 287 287 286 285 284 284 285 285 285 285 285 285
278 278 279 279 279 279 279 278 278 278 278 278 278 279 279 279 279 279 279 279 280 280 280 280 280 280 280 280 280 280 280 280 281 281 282 283 284 284 285 285 285 285 285 285 285 285 285 285 286 286 287 287 287 288 288 288 288 288 287 287 287 287 287 287 287 287 287 287 287 287 287 287 287 287 287 286 286 285 285 284 285 284 284 284 283
276 276 276 276 277 276 276 275 275 275 275 276 276 276 276 276 276 276 277 277 277 277 278 278 278 278 278 279 279 279 279 279 280 280 281 282 283 284 284 285 285 285 285 284 284 284 284 285 285 286 286 287 287 287 288 288 288 288 287 287 287 286 287 287 287 287 287 287 287 287 287 287 287 287 287 287 286 285 284 284 284 284 283 283 283
274 274 274 274 274 273 273 272 272 273 273 273 273 273 273 273 273 273 273 274 274 275 275 276 276 277 277 277 278 278 278 278 279 280 280 281 282 283 283 283 284 284 284 284 284 284 284 284 285 285 286 286 286 287 288 288 288 288 288 287 287 286 286 287 286 286 286 286 286 287 287 287 286 286 286 286 286 286 285 284 284 284 283 283 283
272 272 271 271 270 270 270 269 269 270 270 270 269 269 269 269 270 270 270 271 272 272 273 274 274 275 275 276 276 277 277 277 278 279 279 280 280 281 281 282 282 283 283 283 283 283 283 284 284 285 285 286 286 287 287 288 288 288 288 287 287 286 286 286 286 286 286 286 286 286 286 286 286 286 286 286 286 285 285 285 285 284 283 283 283
270 269 268 268 268 267 267 266 266 266 266 266 266 266 266 267 267 267 268 268 269 270 271 271 272 272 273 274 274 275 275 276 276 277 277 278 278 279 279 280 281 281 281 282 282 283 283 283 284 284 285 285 286 286 287 288 288 288 288 287 287 287 287 286 286 286 285 285 285 285 285 285 286 285 285 286 286 285 285 285 285 284 284 284 283
267 266 266 266 265 265 265 264 264 264 264 264 264 264 264 265 265 265 266 266 267 267 267 268 269 269 270 271 272 273 273 274 274 275 275 276 277 277 278 278 279 279 280 280 281 282 283 283 283 284 284 285 285 286 287 288 288 288 288 287 287 287 287 286 286 286 285 285 285 285 285 285 285 285 285 285 285 285 285 284 284 284 284 284 284
265 265 264 264 264 263 263 263 263 263 263 263 263 263 263 263 263 264 264 264 265 265 265 266 267 267 268 269 270 271 271 272 272 273 273 274 275 276 276 277 277 278 278 279 280 281 282 283 283 283 284 284 285 286 287 288 288 288 288 288 288 288 287 286 286 285 285 285 284 284 284 284 284 284 284 284 284 285 285 285 284 284 284 284 284
264 264 263 263 263 262 262 262 262 262 262 262 262 262 262 262 262 263 263 263 264 264 265 265 266 267 267 268 268 269 269 270 271 271 272 273 273 274 275 276 277 278 278 279 280 281 282 282 283 283 283 284 284 285 286 288 288 288 288 288 288 288 287 287 286 285 284 284 284 284 284 284 284 283 283 284 284 284 284 284 284 284 283 283 284
263 263 262 262 262 262 262 262 262 262 262 261 262 262 262 262 262 262 263 263 263 264 264 265 265 266 266 267 267 267 268 269 269 270 270 271 272 273 274 274 275 277 278 279 280 281 282 282 282 283 283 283 284 285 286 287 287 288 288 288 288 288 288 287 286 285 284 283 283 283 283 283 283 283 283 283 283 283 283 284 284 283 282 282 282
262 262 262 262 262 261 261 261 261 261 261 261 261 261 261 262 262 262 263 263 263 263 264 264 264 265 265 266 267 267 267 268 268 269 269 270 270 271 272 273 274 275 276 277 278 280 281 282 283 283 283 283 284 285 285 286 286 287 287 288 288 288 288 287 286 285 284 283 283 283 283 283 283 283 283 283 283 283 283 283 282 282 281 281 281
262 262 261 261 261 261 261 261 261 261 261 261 261 261 261 262 262 262 262 263 263 263 263 263 264 264 265 265 266 266 266 267 267 267 268 268 268 269 270 272 273 274 275 276 277 278 279 281 283 284 284 284 284 285 285 285 286 286 287 287 287 288 288 287 286 285 284 283 283 283 283 283 282 282 282 282 282 282 282 281 281 280 279 279 279
261 261 261 261 261 261 260 260 260 260 260 260 261 261 261 261 262 262 262 262 262 262 263 263 263 264 264 264 264 265 265 265 265 266 266 266 267 267 269 270 271 273 274 275 277 278 278 280 282 283 284 284 284 284 284 285 285 286 286 286 287 287 287 287 286 286 285 284 283 283 282 282 282 282 281 281 281 281 280 280 279 278 277 278 277
261 261 261 261 260 260 260 260 260 260 260 260 260 260 261 261 261 261 261 262 262 262 262 262 263 263 263 264 264 264 264 265 265 265 266 266 267 267 268 269 271 272 273 274 275 277 278 279 281 282 283 284 284 284 284 284 285 285 285 285 285 286 287 287 286 286 285 284 283 283 282 282 281 281 280 280 280 279 279 278 278 277 276 276 275
261 261 261 260 260 260 260 260 260 260 260 260 260 260 260 260 261 261 262 262 263 263 263 264 264 264 265 265 265 265 265 266 266 267 267 268 269 269 270 271 271 272 273 274 275 276 277 278 280 281 282 282 282 283 283 284 284 285 285 285 285 285 286 286 286 285 285 284 283 283 282 281 281 280 279 279 279 278 277 277 277 276 275 275 275
260 260 260 260 260 260 260 260 259 259 259 259 259 259 260 260 261 262 263 263 264 265 265 266 266 267 267 267 267 267 267 268 268 269 270 270 270 271 271 272 272 273 273 274 275 276 276 277 278 279 281 281 281 281 282 283 284 284 284 284 284 284 285 285 285 285 285 284 283 282 282 281 280 279 278 278 277 277 276 276 276 275 274 275 275
260 260 260 260 260 260 259 259 259 259 259 259 259 259 260 260 261 262 263 263 264 265 265 266 267 267 267 268 268 268 268 269 269 269 270 270 270 271 271 272 272 273 273 274 275 275 276 276 277 278 279 280 281 281 282 283 283 284 284 284 284 284 284 285 285 285 284 284 283 282 281 280 279 278 278 277 276 275 275 275 275 274 274 275 275
260 260 260 260 259 259 259 259 259 259 259 259 259 259 260 260 260 261 262 263 263 264 265 265 266 266 267 267 267 268 268 268 268 269 269 270 270 271 271 272 272 273 273 274 275 275 276 276 277 277 278 279 280 281 282 282 283 283 283 283 284 284 284 284 284 284 284 283 282 281 280 279 279 278 277 277 275 274 274 274 273 273 274 274 274
260 260 259 259 259 259 259 259 259 259 259 259 259 260 260 260 260 261 261 262 262 263 264 264 265 265 266 266 266 267 267 268 268 269 269 270 270 271 271 272 273 273 274 274 275 275 276 276 277 277 278 278 279 280 281 281 282 282 283 283 283 283 283 284 284 284 283 283 282 281 280 279 278 277 277 276 275 274 273 273 273 273 273 273 273
259 259 259 259 259 259 259 259 259 259 260 260 260 260 260 260 261 261 261 261 261 262 263 263 264 264 265 265 266 266 267 268 268 269 269 270 271 271 272 272 273 273 274 274 275 275 275 276 276 277 277 278 278 279 280 281 282 282 282 283 283 283 283 283 283 283 283 282 281 280 279 278 277 276 276 275 274 273 273 272 272 272 272 272 272
259 259 259 259 260 260 259 259 259 259 260 260 260 260 260 260 261 261 261 261 261 262 262 263 263 264 264 265 266 266 267 268 268 269 270 270 271 272 272 273 273 273 274 274 275 275 275 276 277 277 278 278 278 279 280 281 281 282 282 282 282 282 282 282 282 282 282 281 280 279 278 277 276 276 275 274 273 273 272 272 272 272 272 272 272
258 259 259 259 259 259 259 259 260 260 260 260 260 261 261 261 261 261 262 262 262 262 262 263 263 263 264 265 265 266 267 267 268 269 269 270 271 272 272 272 273 274 274 275 275 275 276 276 277 277 278 278 279 279 279 280 281 282 282 282 282 282 282 281 281 281 281 280 279 277 276 276 276 275 274 273 273 272 272 271 271 271 271 272 271
258 258 259 259 259 259 259 260 260 260 260 261 261 261 262 262 262 262 262 262 262 263 263 263 263 263 264 264 264 265 266 266 267 268 269 269 270 270 270 271 272 273 274 275 275 276 276 276 277 277 278 279 279 280 280 281 281 282 282 282 282 281 281 281 280 280 279 278 277 276 276 275 275 274 273 273 272 272 271 271 271 271 271 271 271
258 258 259 259 259 259 260 260 260 260 261 261 261 262 262 262 262 262 263 263 263 263 263 263 263 263 264 264 264 264 265 265 266 267 267 268 269 269 269 270 271 272 273 274 275 276 276 277 277 277 278 279 279 280 281 281 282 282 282 282 281 280 280 280 279 279 278 277 276 276 275 275 274 273 273 272 271 271 271 270 270 270 270 271 270
258 258 258 259 259 259 260 260 260 260 261 261 262 262 262 263 263 263 263 263 263 263 264 264 264 264 264 264 264 264 265 265 266 267 268 269 269 270 270 271 271 272 273 274 275 276 277 277 277 277 278 279 280 281 281 281 281 281 281 281 280 279 278 278 278 277 277 276 275 275 274 274 273 273 272 272 271 270 270 270 270 270 270 270 270
257 258 258 258 259 259 259 260 260 260 261 261 262 262 263 263 263 263 264 264 264 264 264 264 264 264 264 264 265 266 266 267 268 269 269 270 270 271 272 272 273 273 274 275 276 277 278 278 278 278 278 279 280 280 281 280 280 280 280 279 278 277 277 277 276 276 275 275 274 273 273 272 272 272 271 271 271 270 270 270 270 270 270 269 269
257 257 258 258 258 259 259 259 260 261 261 261 262 262 263 263 263 264 264 264 264 264 264 264 264 265 265 265 266 268 269 270 270 270 270 271 271 272 272 272 273 273 274 275 275 276 276 278 279 279 279 279 280 280 280 280 280 280 279 278 277 276 276 275 275 274 274 273 273 272 272 271 271 271 271 270 270 270 269 269 269 269 269 269 269
257 257 258 258 258 259 259 259 260 260 261 261 262 262 262 263 263 263 264 265 265 265 265 265 265 265 266 266 268 269 269 269 269 269 269 270 270 270 270 270 271 271 271 272 273 274 275 277 278 279 279 279 279 279 280 280 279 278 277 276 275 275 274 274 273 273 272 272 271 271 271 270 270 270 270 270 269 269 269 269 269 269 269 269 269
257 257 257 258 258 258 259 259 260 260 260 261 261 261 262 262 262 263 263 264 264 265 265 265 265 266 266 266 266 266 266 265 265 266 267 267 267 267 267 267 268 269 269 271 272 273 274 275 276 277 277 277 277 278 278 278 277 277 275 274 274 273 273 272 272 272 271 271 270 270 270 270 270 270 269 269 269 269 268 268 268 268 268 268 268
257 257 257 257 258 258 259 259 259 259 260 260 260 261 261 261 262 262 263 263 264 264 264 264 265 265 264 264 264 263 263 263 263 264 264 265 264 264 264 265 265 267 268 270 271 272 273 273 274 274 275 275 275 275 275 275 275 274 274 273 273 272 272 271 271 271 270 270 269 269 269 269 269 269 269 268 268 268 268 268 268 268 268 268 268
257 257 257 257 258 258 258 259 259 259 259 259 259 260 260 260 261 261 262 262 262 263 263 263 263 263 263 263 262 262 262 262 262 262 263 263 263 263 263 263 263 264 266 268 270 270 271 272 272 272 272 273 273 273 273 273 273 273 273 272 272 271 271 271 270 270 270 270 269 269 269 269 268 268 268 268 268 268 268 268 268 268 268 268 267
257 257 257 257 257 258 258 258 258 258 258 259 259 259 259 259 260 260 261 261 261 262 262 262 262 262 262 261 261 261 261 261 261 262 262 262 262 261 261 262 263 263 264 265 267 268 269 270 271 271 271 271 271 272 272 272 272 272 272 271 271 271 270 270 270 270 269 269 269 269 268 268 268 268 268 268 268 267 267 267 267 267 267 267 267
256 257 257 257 257 257 257 257 257 258 258 258 258 258 258 259 259 259 260 260 261 261 261 260 261 261 261 261 260 260 260 260 260 260 260 260 260 260 260 261 262 263 263 263 264 265 266 267 268 269 269 270 270 270 270 270 271 271 271 271 271 270 270 270 269 269 269 269 269 268 268 268 267 267 267 267 267 267 267 267 267 267 267 267 267
257 256 256 257 257 257 257 257 257 257 257 257 257 258 258 258 258 259 259 259 260 260 260 260 260 260 260 260 260 260 260 260 260 260 260 260 260 260 260 260 261 262 262 263 263 264 265 265 266 267 268 268 268 269 269 269 269 270 270 270 270 269 269 269 269 268 268 268 268 268 268 267 267 267 267 267 267 267 267 267 267 267 267 267 267
257 256 256 256 256 256 256 256 256 256 257 257 257 257 257 257 258 258 258 259 259 260 260 260 260 260 260 260 260 260 260 260 260 260 260 260 260 260 260 260 260 260 261 261 262 263 264 264 265 265 266 266 267 267 267 268 268 268 268 268 268 268 268 268 268 268 267 267 267 267 267 267 267 267 267 267 267 267 266 266 266 266 266 266 267
257 257 256 256 256 256 256 256 256 256 256 256 256 256 257 257 257 258 258 258 259 259 260 260 260 260 260 260 260 260 260 260 259 260 260 260 260 260 260 260 260 260 260 260 261 261 262 263 264 264 265 265 266 266 266 266 266 266 266 267 267 267 267 267 267 267 267 267 267 267 267 267 266 266 266 266 266 266 266 266 266 266 266 266 266
257 257 257 256 256 256 256 256 256 256 256 256 256 256 256 256 257 257 258 258 258 259 259 259 259 259 259 259 259 259 259 259 259 259 260 260 260 260 260 260 260 260 261 261 261 262 262 263 263 263 264 264 264 264 264 265 265 265 265 266 266 266 266 266 266 266 267 267 267 267 267 267 266 266 266 266 266 266 266 266 266 266 266 266 266
Wind_Speed
16 16 16 17 18 20 21 22 22 22 22 23 24 24 25 25 25 25 24 24 24 23 22 21 20 18 18 18 18 18 18 19 19 20 21 23 25 26 27 27 29 29 30 31 32 33 34 35 35 36 35 36 38 38 38 39 37 36 36 36 36 34 30 24 14 8 14 23 27 30 34 36 36 39 40 39 40 40 39 38 37 38 40 40 40
15 15 15 15 15 16 17 17 18 19 20 21 22 23 24 25 25 26 26 26 25 24 23 21 20 19 18 17 17 18 18 19 19 19 21 22 24 25 27 27 29 30 30 31 32 32 33 34 34 34 34 36 37 37 37 37 37 38 38 37 38 39 35 30 22 13 11 18 23 26 32 36 37 39 41 41 41 41 41 39 38 39 41 41 40
15 15 15 15 14 14 14 14 15 16 17 17 19 20 22 23 23 25 26 26 26 26 26 24 23 22 20 18 17 17 18 19 19 19 20 22 23 25 26 27 29 30 30 31 32 32 33 33 33 32 32 35 37 36 35 35 36 37 38 38 38 38 38 35 29 22 16 17 23 27 31 35 38 39 41 42 42 41 42 41 40 41 41 41 40
15 16 15 15 15 14 14 14 15 16 16 15 16 17 19 20 21 23 25 25 26 26 27 27 27 26 25 24 22 19 18 18 18 18 19 21 22 24 25 27 28 29 31 31 31 31 32 32 32 32 32 34 36 35 33 34 35 36 36 37 37 37 37 36 36 32 23 19 23 29 33 37 39 39 40 41 40 41 41 40 40 41 42 41 40
14 15 16 16 16 16 15 15 17 18 18 18 18 18 20 20 20 21 23 24 25 26 26 27 28 28 28 27 27 25 23 21 19 18 18 19 21 23 24 26 27 28 30 31 31 31 32 32 32 31 31 34 35 34 33 33 34 36 36 36 35 35 35 35 38 36 30 24 24 28 32 35 35 37 40 40 38 38 38 39 40 40 40 40 39
16 16 16 16 16 17 16 17 18 19 20 20 20 21 23 23 22 22 23 22 23 24 25 25 26 27 28 28 28 27 27 26 24 22 21 20 21 22 23 25 26 28 29 29 30 30 31 33 33 32 32 34 35 33 32 33 34 35 36 35 34 33 32 34 35 35 33 30 26 26 31 34 32 33 38 42 40 38 37 36 37 39 39 39 39
17 19 19 18 19 18 18 19 20 21 22 22 22 23 25 26 26 26 26 25 24 25 25 24 25 25 27 28 27 28 28 28 27 26 25 23 23 24 24 25 26 27 28 29 29 30 31 32 33 32 33 34 35 33 31 32 34 35 36 35 33 32 31 32 32 32 33 31 26 26 30 33 33 32 36 40 39 37 37 34 32 35 38 39 39
18 19 19 20 21 21 21 22 23 25 25 25 26 27 29 30 30 31 30 29 28 28 27 26 26 26 26 26 26 27 28 28 28 28 28 26 25 25 26 27 28 28 29 29 30 30 31 32 32 32 33 34 35 34 33 32 32 34 35 33 31 31 31 31 30 30 31 29 27 26 27 30 31 29 30 34 33 31 34 33 32 35 38 39 40
19 20 20 21 22 22 23 24 25 27 28 29 30 31 32 33 34 34 34 33 33 33 31 30 28 27 26 26 26 26 26 27 28 28 28 27 26 26 27 28 29 29 30 30 30 30 31 32 33 33 34 34 35 35 34 33 32 33 33 31 30 31 31 30 30 30 29 27 26 24 23 25 29 29 28 34 36 33 34 35 32 33 35 35 37
18 19 20 22 23 23 24 25 27 28 30 31 31 32 33 35 35 36 36 36 36 36 35 34 32 30 29 28 28 27 27 27 28 27 27 27 27 28 28 28 29 29 30 31 31 31 31 31 32 33 33 34 35 36 36 36 36 37 35 31 31 32 31 30 30 30 28 25 25 24 19 20 28 32 32 36 38 34 35 36 32 28 28 26 26
15 17 19 21 23 26 28 30 31 32 32 32 32 33 34 35 35 35 35 35 35 35 34 35 35 35 34 34 33 31 30 30 30 28 27 27 28 29 30 30 30 30 31 31 32 32 32 32 32 32 32 33 34 35 36 37 38 40 39 37 36 35 34 32 31 32 29 27 28 27 23 23 29 32 32 33 35 35 36 37 33 29 27 22 16
19 21 22 24 25 27 29 31 33 34 35 34 35 35 35 35 35 35 35 35 35 34 33 33 34 35 35 36 36 36 37 37 35 32 31 31 31 30 31 32 31 32 32 32 33 33 33 33 33 33 32 33 33 33 34 35 36 37 39 39 40 40 40 38 36 34 32 30 29 29 30 30 28 30 33 32 33 34 34 34 35 33 30 27 21
25 25 26 27 27 28 29 30 31 33 34 34 35 36 36 37 37 36 36 36 35 35 35 36 36 36 35 35 36 37 39 39 39 38 37 36 36 33 33 33 33 33 33 33 34 34 33 33 33 34 34 33 32 32 33 34 33 33 34 36 39 41 43 44 43 40 38 36 32 33 37 35 29 30 36 36 34 34 33 32 34 34 31 31 31
25 25 26 27 27 28 28 29 30 31 32 33 33 34 35 35 35 35 35 34 35 36 37 38 39 40 39 38 38 38 39 40 40 39 39 39 39 37 36 36 36 36 35 34 34 34 34 34 33 34 35 33 32 31 31 32 31 31 32 33 36 39 41 43 45 45 44 41 38 38 41 39 34 32 34 37 39 39 36 35 34 34 35 35 35
24 24 25 26 26 27 27 27 28 30 31 32 32 32 33 33 33 34 34 35 36 37 37 38 39 41 41 41 41 42 43 44 43 39 36 36 36 36 36 36 37 38 37 37 37 36 36 35 35 35 35 34 33 32 31 31 31 31 32 33 35 37 38 41 44 46 45 44 43 43 42 39 38 35 32 35 41 43 41 41 40 39 38 35 30
24 24 25 26 26 26 26 28 31 33 34 34 34 34 35 35 36 36 36 36 37 37 38 39 40 42 43 42 42 43 46 49 48 44 40 36 36 36 37 37 37 37 38 38 38 39 38 37 37 37 37 36 35 33 32 31 31 31 33 34 35 35 37 40 43 44 43 43 44 46 44 40 39 39 36 35 39 41 39 37 36 35 30 23 20
24 25 26 26 26 26 28 30 32 34 34 33 34 35 35 36 37 37 36 37 38 39 40 41 41 42 43 44 43 43 45 48 49 49 46 41 38 37 36 35 35 36 38 39 39 39 39 39 39 38 38 38 36 35 33 31 31 33 34 34 34 34 37 41 41 39 40 42 44 46 45 42 40 40 40 38 39 40 38 33 33 33 25 16 14
24 25 25 26 26 28 29 29 30 32 32 32 33 35 36 38 38 38 37 38 40 41 41 41 42 42 42 43 44 44 46 49 48 46 43 41 39 38 37 35 35 36 38 40 41 40 40 41 41 40 40 40 39 37 34 31 32 33 34 34 33 32 37 40 36 33 35 39 43 45 44 43 41 40 40 40 39 41 42 39 36 33 26 20 16
24 25 26 27 28 28 29 29 30 31 32 34 35 36 38 39 39 39 38 38 40 42 42 41 42 42 42 43 44 44 45 48 48 45 42 41 41 41 39 36 35 35 37 38 40 40 40 41 42 42 41 41 41 39 36 34 33 34 34 33 30 32 39 39 32 30 33 36 39 42 43 43 42 40 39 39 39 41 46 45 40 36 32 28 23
25 26 27 28 28 29 29 29 30 31 32 34 36 36 36 37 38 38 38 38 39 41 42 42 43 45 45 43 44 45 45 47 48 46 44 43 43 42 40 37 36 36 37 37 38 39 40 40 41 42 42 41 41 40 38 37 36 35 36 33 30 35 42 36 29 32 35 34 35 37 39 42 41 39 39 39 39 41 45 45 43 42 39 33 28
26 27 28 29 30 31 31 31 31 32 33 33 35 36 35 34 36 37 37 38 38 40 43 43 44 46 47 45 44 45 45 45 46 46 45 44 44 43 42 40 39 39 39 39 39 39 40 39 40 40 41 41 41 39 37 37 37 37 38 37 38 43 41 31 28 32 34 32 33 34 35 36 37 39 40 41 41 41 42 43 42 42 41 36 31
26 28 29 31 31 32 33 32 32 33 33 32 34 36 35 34 35 36 36 37 38 40 42 41 40 43 45 44 43 43 42 43 44 45 45 45 45 45 45 45 44 43 42 42 42 42 41 41 41 40 40 40 40 39 35 35 37 38 39 41 44 47 42 32 29 30 30 30 31 30 31 32 33 36 38 40 41 42 42 42 42 41 41 40 36
28 29 30 32 33 33 34 33 33 32 33 33 33 35 35 34 35 35 34 35 35 36 37 36 36 39 40 41 41 40 39 39 39 40 41 42 43 44 44 45 45 44 43 42 42 43 43 43 42 42 41 40 40 39 36 34 35 36 38 41 44 45 41 35 30 28 29 29 28 27 30 32 32 33 35 37 39 40 40 40 41 40 39 39 39
29 30 31 32 34 34 34 34 33 33 33 33 33 34 34 34 33 33 32 32 32 32 33 32 32 33 34 37 39 37 35 35 37 38 39 40 40 41 42 43 43 44 43 43 44 44 44 44 44 43 42 41 41 40 38 36 36 36 37 38 40 40 37 33 31 29 27 26 26 27 30 31 32 32 34 35 34 34 36 36 37 37 36 37 38
31 31 32 33 34 35 35 35 34 34 33 32 32 32 32 32 31 31 30 30 29 29 30 30 30 30 31 32 32 32 31 32 34 34 34 35 37 39 40 41 42 42 44 45 46 46 45 45 45 45 43 42 41 39 38 37 37 37 37 36 36 35 33 32 31 29 26 26 27 29 30 32 33 33 33 32 31 31 33 32 32 33 33 32 32
32 32 32 33 33 34 35 35 34 33 33 31 31 31 31 31 31 30 29 29 29 29 29 29 28 28 29 29 29 30 31 31 32 34 34 35 37 38 38 39 39 39 40 43 46 49 50 49 46 44 43 42 39 36 35 36 35 36 36 36 34 33 32 31 29 27 27 28 28 29 30 30 31 30 29 29 30 31 32 32 30 30 31 30 27
31 32 33 34 34 33 33 34 34 33 32 31 30 30 30 30 30 30 29 29 29 28 29 29 28 27 27 29 30 31 33 33 34 36 36 36 37 37 38 39 38 37 38 39 40 42 45 47 47 44 42 41 39 37 35 34 34 34 34 34 34 33 33 33 32 30 29 30 29 29 29 27 26 27 28 29 31 31 33 34 32 31 31 30 27
31 33 33 33 33 33 32 33 33 31 31 30 30 30 30 30 30 31 31 32 31 31 30 30 30 30 30 30 30 30 30 31 32 33 34 34 35 35 35 37 39 39 39 38 37 38 37 37 39 40 37 35 34 33 32 32 32 32 33 32 32 33 34 34 32 31 31 31 29 27 26 25 26 27 28 28 29 30 32 34 34 32 32 31 26
31 33 33 32 33 32 31 31 31 31 31 31 30 31 31 31 32 33 34 34 33 34 34 32 32 33 32 31 30 28 26 27 30 33 35 36 37 37 36 36 39 41 41 40 39 40 36 31 28 28 28 27 26 26 27 28 29 30 32 33 32 31 32 32 31 30 30 30 28 26 25 25 26 27 27 27 27 29 32 33 33 32 32 30 25
31 32 32 31 32 31 30 30 30 30 31 31 31 31 31 31 31 33 34 35 35 37 38 38 38 39 37 35 34 33 33 35 37 38 39 39 39 40 39 39 39 41 43 43 40 34 29 26 24 23 23 23 23 23 24 24 25 26 29 32 31 30 30 30 30 30 29 28 28 27 26 25 25 26 27 26 25 27 30 32 32 31 31 28 23
31 32 31 30 31 31 30 30 30 30 30 30 30 30 30 30 31 33 34 35 36 37 38 39 40 41 40 39 39 39 40 41 41 39 39 39 39 38 39 39 38 38 39 40 37 29 24 21 21 21 22 21 21 22 22 22 22 23 25 27 28 29 29 29 29 29 28 27 27 27 26 26 26 27 27 26 26 27 28 28 28 29 29 28 24
31 32 32 31 31 31 29 29 29 29 29 29 29 28 28 28 30 31 32 33 35 36 37 38 39 39 39 40 40 39 38 38 38 37 37 37 37 37 36 36 37 36 36 36 33 29 24 21 19 19 20 20 20 21 21 20 21 22 22 22 24 26 28 29 29 29 27 26 26 26 27 28 28 27 28 28 27 27 26 26 27 27 26 25 24
32 33 33 32 31 30 29 28 28 28 28 28 28 28 27 26 26 29 32 33 34 35 35 34 35 36 37 37 38 38 38 37 36 36 36 35 36 35 35 35 35 34 34 32 28 25 24 23 22 21 21 21 22 23 22 21 21 22 22 22 23 25 27 28 28 27 27 27 27 27 27 28 28 27 27 28 29 28 27 26 26 26 24 23 22
32 34 33 32 30 29 28 27 27 28 28 28 28 28 28 28 28 28 29 29 30 33 34 34 33 32 33 35 36 36 37 36 35 34 33 33 33 33 34 34 33 33 33 31 26 23 23 23 24 24 25 25 26 27 27 27 25 24 23 23 24 24 25 26 26 27 27 27 26 26 27 28 28 28 27 27 27 26 26 26 26 25 23 22 21
32 32 32 30 29 28 28 27 28 28 28 29 29 29 30 30 29 28 27 26 26 28 33 36 36 34 33 33 34 35 35 34 34 33 32 31 31 32 31 29 26 27 28 28 26 24 23 24 24 26 28 29 29 30 31 30 27 23 21 21 22 23 23 24 26 28 27 26 26 27 28 29 30 30 30 29 28 26 25 25 26 25 24 23 22
30 30 30 29 28 28 29 29 29 28 29 30 30 30 30 29 28 28 28 27 27 27 29 34 38 39 36 33 31 31 32 32 32 32 32 31 31 31 28 23 21 21 22 24 25 25 25 26 27 28 30 30 30 32 35 34 28 23 22 22 22 22 23 25 26 26 26 26 26 27 28 29 30 31 30 29 29 28 27 27 27 26 25 25 24
29 29 29 29 28 29 30 30 30 30 30 29 29 29 29 29 28 28 27 27 28 28 29 31 33 34 35 35 32 30 31 32 32 32 32 31 29 28 26 23 22 21 21 23 25 25 26 27 27 27 28 28 28 30 32 32 28 24 23 24 24 24 26 27 28 28 27 26 26 28 30 30 31 31 29 26 25 25 25 26 26 24 25 26 24
29 27 27 28 28 28 29 29 30 30 29 29 28 28 28 28 28 28 27 27 27 27 27 28 28 27 29 34 36 35 33 32 30 30 31 30 27 26 26 26 25 24 23 26 27 26 25 27 28 27 26 27 28 28 27 26 26 26 25 25 25 26 27 27 28 28 28 27 27 29 30 29 29 31 30 27 26 25 24 25 25 23 23 24 22
29 28 27 27 26 26 26 27 28 29 28 28 28 28 27 28 27 26 26 26 26 26 26 26 26 26 27 31 34 34 31 28 27 27 29 30 29 28 27 26 26 26 26 27 27 26 26 28 29 28 26 26 27 28 27 26 25 25 25 25 24 24 24 24 25 26 26 27 27 27 28 28 28 29 29 27 27 27 26 26 27 25 23 23 21
30 30 29 27 26 26 26 26 26 27 27 27 28 27 27 27 26 26 26 26 25 26 26 25 26 29 31 31 32 30 27 24 25 26 27 28 29 29 27 25 24 24 25 25 26 26 26 27 29 28 27 26 26 26 26 26 24 23 24 24 24 24 24 25 26 27 26 26 26 26 27 27 27 27 26 25 26 27 27 26 26 25 24 24 23
30 31 30 28 26 26 26 25 25 26 26 27 27 26 26 27 27 27 27 26 25 25 26 26 27 31 32 31 31 31 28 24 24 25 25 24 24 25 25 24 23 23 24 25 25 25 25 24 24 26 26 22 20 19 21 22 22 23 24 25 25 24 24 25 26 26 26 25 26 26 26 27 28 27 25 24 24 25 26 25 24 23 23 23 23
29 29 29 28 26 25 25 25 26 26 26 26 26 26 26 27 27 27 26 26 25 25 25 26 28 30 30 29 29 29 26 22 21 22 21 21 22 22 24 25 24 23 24 24 24 25 25 19 11 12 13 11 13 16 19 21 23 24 24 24 23 23 23 22 23 24 25 25 25 25 26 26 26 25 24 25 25 25 25 24 24 23 23 23 23
27 27 27 26 25 25 25 25 26 26 25 25 26 26 26 26 27 27 26 26 25 25 24 25 27 28 27 27 27 26 23 21 21 21 20 20 22 23 25 26 25 23 23 23 22 21 20 16 11 5 2 1 6 11 14 18 21 22 22 21 21 21 22 23 23 25 25 25 25 25 26 25 25 25 25 26 26 26 25 25 24 24 23 23 22
26 25 26 26 25 25 25 25 25 25 25 25 25 25 25 25 25 26 25 24 24 24 24 24 25 26 26 26 27 26 23 22 21 20 19 20 22 23 25 26 26 24 23 21 20 19 16 14 13 10 7 5 2 2 5 8 13 16 19 20 21 22 23 24 26 27 28 27 27 27 26 26 26 26 27 27 28 27 26 25 24 24 23 23 22
24 24 25 25 25 25 25 25 25 25 24 25 24 24 24 24 24 24 23 22 22 24 24 24 25 25 25 26 26 25 24 23 22 20 20 21 22 23 25 25 24 24 22 20 18 17 16 15 14 13 11 10 8 5 4 5 8 11 15 18 20 21 22 23 25 27 28 29 29 28 28 28 28 28 28 28 28 27 26 25 25 24 23 22 21
23 23 24 24 24 25 25 26 26 25 24 24 24 24 24 24 23 23 22 21 21 22 23 24 25 24 24 25 25 25 24 24 23 21 21 21 22 23 25 24 22 22 21 20 19 18 16 15 14 13 13 12 11 8 7 6 7 9 11 13 16 17 19 21 23 25 27 29 30 30 29 28 28 28 29 28 27 26 26 25 24 24 22 21 20
22 23 23 23 23 24 24 25 25 25 24 24 23 23 23 23 22 22 21 21 22 22 23 24 25 24 24 24 25 25 24 23 22 22 22 22 23 23 23 23 23 22 21 21 21 20 19 17 15 14 13 12 11 11 10 9 8 8 9 11 13 14 17 19 22 24 25 27 29 30 30 29 28 28 28 28 27 26 25 24 23 22 21 21 20
22 22 23 23 23 22 23 24 24 24 24 24 24 23 22 22 22 22 22 22 22 23 24 24 24 24 24 24 24 24 23 22 22 22 23 23 23 24 23 23 23 23 23 23 22 21 20 19 17 16 15 14 13 13 12 11 10 9 9 10 11 13 16 18 21 23 24 25 27 28 29 29 28 28 28 28 27 26 24 23 22 21 21 20 19
22 22 22 22 22 22 23 23 23 24 24 24 24 24 23 23 22 23 23 23 23 23 23 24 24 24 24 25 25 25 24 24 24 24 25 25 25 25 25 25 25 25 25 25 24 22 21 20 19 18 17 17 16 15 14 13 12 11 10 10 11 12 14 17 20 22 24 25 26 27 28 28 28 28 27 27 27 26 25 23 22 21 20 19 18
21 21 21 22 22 22 23 23 23 23 24 23 24 24 24 24 24 24 23 23 23 23 24 24 24 24 25 25 25 25 25 25 25 26 26 26 25 25 25 26 26 26 27 27 27 26 26 25 23 21 20 18 17 17 17 16 15 15 14 13 13 14 16 18 21 23 24 26 26 27 28 29 28 26 26 26 26 26 25 23 22 21 19 18 17
20 21 21 21 21 22 23 23 23 23 23 23 23 24 24 24 24 24 24 24 24 23 23 24 24 24 24 25 26 25 25 26 26 26 27 27 26 26 26 27 27 28 28 29 29 30 30 30 29 27 26 24 23 21 21 20 19 18 17 17 17 18 19 21 22 23 25 27 27 28 28 29 28 27 26 25 24 24 23 22 21 20 18 17 16
Wind_Direction
31 31 30 30 31 31 32 30 27 24 22 19 17 16 14 13 11 9 10 11 11 10 8 6 359 348 336 326 319 313 308 303 299 295 289 284 280 277 273 268 264 262 262 260 259 257 255 254 252 249 248 248 247 246 245 245 244 242 242 241 240 240 236 227 231 236 214 217 224 223 221 218 215 215 215 215 218 221 224 225 224 222 223 223 223
24 24 22 20 19 21 23 22 20 17 15 13 11 9 7 6 4 2 2 2 3 4 4 4 1 356 348 339 330 322 315 308 304 299 291 285 282 278 275 272 268 265 263 260 259 258 257 255 254 253 250 248 247 246 245 244 243 242 240 240 240 240 240 236 236 239 220 211 214 216 215 213 212 213 213 215 217 218 219 220 220 221 223 224 224
20 19 18 16 13 11 11 11 10 8 6 5 3 2 360 358 357 355 354 353 353 354 355 354 353 351 350 347 341 333 324 316 309 303 296 290 285 281 277 273 271 269 266 263 261 259 257 255 255 254 253 251 249 247 245 243 242 241 240 237 237 238 238 237 237 237 231 215 208 206 206 207 210 213 214 216 218 216 216 218 218 218 220 223 224
13 14 13 12 11 8 4 2 360 359 357 354 352 352 351 348 347 346 346 345 344 344 344 345 345 344 343 343 341 338 332 324 315 306 299 294 289 286 282 276 272 270 267 266 264 262 259 257 256 256 254 252 251 248 245 244 241 241 241 238 236 236 235 233 234 235 234 223 211 207 205 205 209 213 212 211 214 215 215 215 215 216 218 220 222
6 9 9 7 6 3 359 353 350 351 349 345 341 341 342 340 336 336 337 337 336 337 336 336 336 336 336 336 335 334 333 329 323 314 305 297 291 287 285 282 278 275 272 269 268 266 263 261 260 258 255 252 251 249 245 243 242 241 241 240 237 236 235 232 232 233 233 228 217 208 206 205 207 209 208 205 207 211 213 214 214 215 217 219 221
352 355 357 358 356 353 351 346 344 344 342 340 337 333 334 334 330 328 329 328 327 328 329 328 328 327 326 326 326 326 327 326 324 321 315 308 301 294 288 284 282 280 278 275 273 270 268 265 263 259 255 253 251 249 246 243 242 241 240 240 238 237 235 234 233 232 232 232 224 208 204 204 202 204 206 205 203 203 206 210 214 216 217 217 219
342 345 345 346 345 344 343 339 337 337 336 334 331 328 327 326 324 323 322 321 319 319 320 319 319 318 317 317 317 318 319 319 318 319 317 314 309 304 298 292 287 284 280 277 275 273 271 268 265 260 257 255 253 251 248 244 243 242 240 238 236 235 235 235 234 232 232 233 227 213 206 204 203 203 205 204 204 204 201 199 205 213 217 219 219
333 336 337 337 338 337 336 334 333 332 331 330 326 324 324 322 321 319 317 315 314 314 314 312 311 310 310 309 309 309 309 309 310 312 313 312 308 305 302 298 294 290 286 281 276 273 271 268 266 263 260 258 257 254 250 247 245 244 242 239 234 232 232 233 233 232 232 231 228 218 207 202 203 204 200 197 200 206 202 197 200 208 213 218 220
325 329 330 331 332 331 330 328 327 326 325 323 321 320 319 318 317 315 313 311 310 310 309 308 306 305 304 302 300 299 297 296 299 302 304 304 304 302 299 296 293 290 287 285 280 275 272 270 268 267 265 262 260 257 254 251 248 246 244 240 236 232 231 231 230 229 229 230 230 220 205 201 203 197 192 194 198 202 201 200 206 209 209 214 219
315 319 322 323 323 323 321 320 319 319 317 315 313 313 313 313 312 310 308 307 307 307 307 305 304 302 300 298 295 292 288 286 289 292 292 292 294 295 294 293 292 289 286 285 283 280 277 274 271 269 267 265 263 260 258 255 252 250 248 245 240 235 232 230 228 227 225 225 227 220 207 208 208 200 197 200 201 200 197 199 205 207 204 210 218
319 319 318 318 316 315 314 315 315 314 313 312 311 310 309 308 307 305 304 303 303 303 303 301 301 300 300 298 296 291 287 285 285 285 283 284 285 286 288 290 291 291 288 285 283 283 281 279 276 273 270 267 265 262 260 258 255 253 252 250 246 241 236 232 230 228 224 224 226 222 218 221 216 207 205 204 200 200 200 199 200 197 194 200 211
328 323 318 314 311 310 310 311 311 311 310 310 310 309 308 306 305 303 302 302 301 301 299 297 297 297 296 295 293 290 288 287 286 284 281 281 280 280 281 282 284 286 286 284 282 281 280 279 277 275 272 269 267 264 262 260 257 256 255 252 249 246 242 238 235 231 227 225 226 222 222 226 222 211 208 206 201 202 203 201 200 198 197 201 204
325 321 316 313 310 310 309 308 307 306 306 307 307 307 305 302 301 301 300 300 299 298 296 295 295 295 293 290 288 286 285 285 284 283 282 282 281 280 278 277 277 279 279 278 278 277 275 274 273 273 272 270 268 265 262 261 259 257 255 253 251 250 246 243 240 237 233 230 228 226 225 225 223 216 213 209 202 201 203 203 204 203 203 209 209
322 319 315 313 312 312 311 309 307 305 305 306 306 305 302 300 299 299 299 299 298 295 294 293 293 292 292 291 289 286 284 282 281 279 278 278 279 278 277 275 275 275 274 272 272 272 272 270 268 268 269 268 267 265 263 261 259 256 253 251 250 249 247 244 241 240 237 234 233 234 231 228 226 224 219 212 207 205 204 204 206 206 210 217 217
319 317 315 314 314 314 314 312 311 309 309 309 308 306 304 302 301 300 300 299 297 294 292 291 290 290 290 289 289 287 285 284 283 279 275 273 273 273 272 271 272 272 271 270 269 270 270 269 267 266 267 266 264 264 262 260 259 256 253 250 249 248 247 245 242 239 238 236 236 238 238 234 230 228 224 218 215 214 212 212 213 213 215 219 219
318 317 316 315 315 315 315 314 312 310 309 308 306 304 303 302 301 300 300 298 295 292 290 289 288 288 287 286 285 283 283 283 283 281 279 277 274 272 269 267 266 266 267 268 268 268 269 269 267 266 266 265 264 263 262 259 257 254 252 250 249 248 247 247 245 242 239 237 238 239 241 239 235 232 229 224 220 217 214 215 216 213 212 213 213
318 317 315 315 315 314 315 315 312 310 308 306 304 303 301 300 299 299 298 296 293 290 288 286 285 284 283 282 281 279 279 279 279 279 279 279 277 275 271 267 265 264 265 266 266 266 266 266 265 265 265 265 265 263 260 257 253 251 251 250 249 247 248 249 248 244 241 240 240 241 241 241 239 237 233 230 226 216 206 207 212 208 202 205 210
319 318 316 314 314 313 313 313 310 308 306 303 302 301 299 298 297 297 296 294 291 288 287 285 283 281 279 278 277 277 277 277 277 276 276 276 276 275 274 272 268 266 265 266 266 265 264 263 263 261 261 263 264 262 258 253 250 248 248 248 247 246 248 250 247 243 241 241 240 241 242 241 240 239 236 234 231 219 207 208 210 202 198 209 210
318 317 314 313 312 311 310 308 306 305 303 300 300 299 298 298 297 296 294 292 290 289 287 286 283 281 279 277 276 275 274 275 274 274 274 274 275 275 275 274 271 268 266 266 266 266 264 263 261 259 258 260 262 261 257 252 248 247 246 246 244 245 249 249 243 238 237 236 236 237 238 238 238 237 235 233 231 224 217 216 211 200 201 210 204
315 313 311 311 310 309 308 307 306 304 302 300 300 299 298 298 297 296 294 293 291 289 288 287 286 284 282 279 277 275 274 274 274 274 274 274 274 274 273 272 270 269 269 267 266 266 264 261 259 257 256 257 258 259 257 252 248 246 245 242 240 246 251 249 240 237 235 233 232 233 234 235 234 232 231 230 229 226 223 220 214 207 207 208 201
313 312 311 310 310 309 309 307 305 304 302 301 299 298 297 297 296 296 295 294 293 292 291 290 289 286 284 281 279 277 275 276 276 276 276 275 274 274 273 271 270 270 270 269 267 265 263 260 258 256 255 255 256 256 253 251 249 246 243 242 244 249 252 249 241 239 235 232 232 231 231 231 230 229 228 227 227 225 224 222 218 215 214 211 207
314 313 312 311 310 310 309 308 306 305 303 303 300 298 298 297 296 295 294 294 293 292 292 291 290 288 286 284 282 281 280 280 279 279 278 277 276 275 273 271 270 269 268 267 264 261 259 258 257 257 255 254 254 253 250 248 248 245 243 244 248 251 251 247 242 238 232 230 230 228 228 229 227 226 226 225 225 225 224 224 223 221 221 219 216
315 313 312 311 311 310 310 309 308 307 305 303 300 298 298 297 296 295 293 293 292 291 291 291 290 289 287 287 287 286 285 284 283 283 283 282 281 279 276 274 272 269 265 263 262 261 259 258 257 257 255 253 253 253 250 247 246 246 244 245 248 250 249 245 240 235 230 228 228 226 227 227 226 225 225 224 224 223 223 224 223 222 223 222 221
316 314 313 312 311 311 311 310 309 307 305 304 300 298 298 297 295 294 292 291 290 289 290 291 291 290 289 290 291 291 289 288 287 287 287 286 285 284 283 281 277 274 270 267 264 261 258 257 257 256 255 254 255 254 251 249 247 246 244 244 246 247 245 241 236 233 229 226 225 226 228 227 225 226 226 224 224 222 221 222 221 219 220 220 219
316 314 313 312 312 312 311 310 309 307 306 305 301 298 298 296 294 293 292 289 287 287 289 290 290 289 289 291 293 294 294 294 293 292 291 291 290 289 287 285 282 277 274 272 269 267 262 258 256 256 255 256 255 252 250 250 249 246 244 244 244 242 239 236 232 229 226 223 223 226 228 228 226 227 227 224 222 219 216 215 213 212 213 214 213
314 313 312 312 312 312 311 309 309 309 307 305 301 297 296 295 293 292 290 287 285 285 287 288 288 287 288 290 292 295 297 297 297 298 298 297 295 294 291 289 286 282 278 274 271 270 267 263 259 256 254 254 252 250 249 250 249 246 244 243 242 238 234 231 228 224 223 224 224 225 227 228 227 226 225 220 215 211 208 203 198 197 200 198 194
313 312 312 311 311 311 310 309 308 307 306 304 301 298 295 293 291 290 289 287 287 286 285 286 286 285 285 286 287 288 289 289 290 291 291 291 291 291 290 290 290 291 291 286 279 273 266 262 259 257 254 252 251 250 251 250 247 244 242 240 239 235 232 230 227 224 224 226 226 227 227 225 222 220 216 211 207 204 200 194 188 185 186 185 179
312 310 310 310 310 310 308 305 304 303 302 301 299 297 295 293 290 287 286 286 285 284 282 281 281 280 280 281 282 282 282 281 282 282 282 282 283 283 284 286 289 291 293 293 294 292 284 271 261 256 253 251 250 249 249 247 244 240 238 236 235 233 232 231 228 226 226 227 227 225 222 216 213 210 206 203 200 197 192 188 185 181 178 176 173
311 309 309 309 308 307 305 303 302 301 301 300 298 295 293 291 288 286 285 284 282 281 281 280 280 280 279 279 280 280 279 279 279 280 280 282 283 282 280 281 284 286 287 288 291 294 295 289 274 260 251 247 246 245 243 241 239 238 235 234 233 231 230 228 226 224 224 223 221 219 214 208 205 201 197 195 194 191 188 186 183 180 177 178 179
311 309 309 308 306 305 304 302 302 302 301 300 298 296 294 292 290 289 289 289 288 287 287 287 288 289 288 287 286 286 286 288 289 289 289 289 289 288 286 285 285 285 287 290 290 287 285 285 282 273 259 248 241 239 237 234 231 231 232 230 229 228 227 225 224 224 222 218 216 215 209 202 197 192 189 189 188 186 186 186 183 179 178 181 182
309 308 307 305 305 305 304 303 302 302 301 299 298 296 296 296 294 293 292 293 294 293 292 292 293 294 294 294 294 293 293 295 296 295 294 293 292 290 289 288 287 285 286 288 287 282 277 276 277 276 271 260 245 235 231 230 230 230 230 229 227 226 225 224 223 222 219 215 213 211 205 199 194 189 187 185 182 181 183 184 183 182 183 185 184
307 305 304 304 305 305 303 303 303 302 301 300 298 297 297 297 297 297 296 296 296 295 296 296 296 296 296 296 297 298 298 298 297 297 296 294 293 291 290 288 287 286 284 282 279 277 276 275 272 270 269 267 259 246 234 230 231 233 232 229 226 224 223 223 222 220 216 212 209 206 201 197 192 188 186 183 179 178 180 181 182 184 184 187 186
306 303 302 304 305 305 304 303 303 301 300 300 299 299 298 296 297 299 300 299 298 296 296 296 296 297 298 298 298 299 299 299 299 298 297 295 294 292 290 288 287 286 283 278 274 272 272 270 268 266 263 263 264 260 252 244 237 234 233 232 229 226 225 224 223 219 214 211 208 202 197 194 189 185 183 181 179 178 179 181 183 184 183 185 185
306 302 301 302 303 303 303 303 302 301 301 300 299 298 297 295 295 297 299 301 302 302 302 301 299 299 300 300 300 299 300 301 301 300 298 298 296 295 293 291 290 289 286 279 272 269 269 267 265 264 262 260 260 260 258 252 241 233 231 232 231 231 228 224 219 216 213 209 205 198 192 189 185 181 179 179 180 181 181 181 181 182 183 184 181
307 304 303 303 303 303 302 302 301 300 299 298 297 296 294 294 294 294 295 297 299 301 303 305 305 304 303 301 301 302 302 302 302 301 300 299 298 298 299 296 292 289 285 278 271 266 267 267 265 263 259 255 253 254 253 248 237 227 225 228 230 229 224 218 213 211 208 203 198 192 188 184 183 182 180 179 179 180 180 181 182 183 183 182 178
308 306 305 306 306 305 304 304 302 301 299 298 297 296 295 294 293 293 293 294 295 296 299 302 305 307 306 304 302 304 305 305 304 303 301 300 301 302 302 298 293 288 284 278 272 268 266 267 267 266 262 254 247 246 248 244 235 224 221 224 228 225 217 212 208 205 201 197 192 186 183 182 183 183 182 181 182 182 181 180 181 183 183 181 178
308 306 307 308 308 307 307 306 305 303 302 301 299 298 297 296 295 295 294 294 294 296 297 300 304 308 309 308 307 307 306 306 305 303 301 300 300 299 296 291 289 288 286 281 276 271 269 268 267 267 267 262 253 249 246 238 226 217 216 220 223 220 213 208 204 199 194 190 186 183 182 183 185 183 181 179 179 179 178 178 178 180 181 180 176
309 308 308 308 308 308 308 308 307 306 305 304 303 301 300 298 298 297 295 294 295 296 297 300 303 304 305 307 310 311 309 308 307 305 304 304 302 298 293 290 289 288 286 283 278 271 268 268 268 266 267 266 262 256 244 226 213 209 210 214 216 214 208 203 198 194 190 186 184 184 184 183 183 181 179 176 174 174 175 176 175 175 175 175 173
313 312 311 311 311 310 309 308 308 307 307 306 306 305 303 302 301 300 298 297 297 296 298 300 302 301 301 305 308 310 309 307 306 305 305 306 304 301 297 293 290 287 284 282 279 273 266 265 265 264 264 264 261 252 236 219 210 206 204 204 202 200 196 192 188 185 184 183 182 182 181 179 179 179 177 175 173 172 172 174 175 173 170 171 171
315 316 316 317 316 314 313 310 307 307 308 308 308 309 308 307 306 304 302 300 297 297 299 300 299 302 305 306 306 305 303 300 300 301 301 300 301 302 302 299 296 294 293 291 288 284 276 267 261 258 257 258 255 243 224 211 204 201 198 194 191 188 187 186 183 181 181 181 178 176 176 175 174 173 174 173 172 171 170 171 173 173 169 167 166
317 318 319 319 319 317 315 312 309 310 311 311 311 312 311 311 311 310 307 305 301 300 301 300 300 303 306 305 305 307 306 302 300 301 300 301 304 308 311 312 311 311 311 310 309 310 304 287 265 253 251 250 242 226 210 200 197 195 193 190 188 186 183 181 180 178 176 174 172 171 171 171 170 169 169 168 167 167 167 167 167 167 165 162 159
320 320 320 320 321 319 316 313 313 314 315 315 315 316 315 315 315 314 313 312 310 308 306 305 306 309 311 312 316 321 322 318 315 314 314 316 318 320 320 320 321 323 324 323 326 332 335 330 299 257 247 235 213 204 202 200 197 194 190 186 183 178 174 172 172 171 169 168 167 167 166 166 166 165 163 161 160 159 160 161 161 160 158 157 157
321 321 321 321 321 320 317 316 316 318 318 318 318 318 319 318 318 318 318 318 318 318 316 316 318 320 322 325 330 334 333 329 327 325 326 327 328 327 326 327 330 335 339 341 344 349 355 2 11 17 4 208 195 199 201 199 195 190 184 178 173 168 166 165 165 166 165 163 161 161 160 159 159 158 156 155 156 155 155 156 157 155 154 154 155
324 324 325 324 324 322 321 321 321 321 321 321 321 321 322 322 322 322 322 322 324 325 324 324 326 328 328 331 334 336 334 332 330 329 330 332 333 333 333 333 336 342 350 355 359 5 11 19 25 30 36 42 60 166 182 185 186 182 176 171 168 166 166 167 167 167 165 161 157 156 155 154 154 154 154 154 154 153 152 154 154 152 151 151 152
329 329 329 329 328 326 325 327 327 326 326 326 325 326 327 327 326 327 327 326 328 330 330 330 332 332 331 332 334 335 334 333 332 331 333 336 337 339 341 343 344 349 356 3 9 15 22 28 32 36 40 44 48 64 107 144 162 169 171 170 168 167 168 170 169 168 165 160 156 154 153 153 153 154 153 154 154 153 151 152 151 150 149 151 152
335 333 332 332 332 331 330 331 330 330 331 331 330 330 331 332 332 332 332 331 332 333 333 334 335 335 335 335 336 336 336 336 336 336 338 341 343 346 349 354 358 2 7 13 20 27 32 37 40 45 50 54 59 69 86 113 140 157 165 167 167 167 170 171 169 167 164 161 157 154 153 152 153 153 152 152 152 150 148 148 148 148 148 149 151
340 338 337 336 335 334 334 334 334 334 334 335 335 334 334 335 336 336 335 336 336 337 337 338 337 338 339 340 340 342 343 343 344 346 348 350 353 355 359 5 11 16 19 22 27 33 40 46 51 58 64 68 72 79 88 102 120 138 153 163 168 171 172 171 168 165 162 159 157 155 152 150 149 149 149 147 146 144 143 143 144 145 146 147 149
345 343 342 341 340 338 338 338 338 337 337 338 338 338 337 338 339 340 339 340 340 341 342 342 343 345 347 348 349 351 352 353 356 359 2 4 6 8 13 18 21 24 28 31 35 38 42 48 54 62 69 73 78 83 89 97 107 121 136 151 161 166 168 167 163 159 157 155 153 152 150 148 146 145 145 143 142 141 139 138 139 141 143 146 149
349 348 346 345 344 342 341 340 340 339 340 340 340 341 342 342 342 343 344 345 346 348 349 349 351 352 353 355 357 359 2 4 5 8 11 14 16 19 23 27 29 32 34 37 39 43 47 51 55 59 64 70 74 78 83 89 95 103 114 127 140 150 156 156 155 153 151 149 148 146 144 142 140 140 140 140 139 138 137 137 138 139 140 144 150
353 352 351 349 347 345 345 345 344 344 344 344 343 343 344 345 345 347 349 350 352 355 357 359 359 360 0 2 3 5 7 9 10 12 16 19 21 24 27 31 35 39 42 43 45 48 52 55 58 60 64 68 71 74 78 81 85 92 100 111 124 134 138 139 140 142 143 142 141 140 139 137 134 133 134 135 135 136 136 136 136 137 137 139 145
355 356 355 353 351 350 350 351 350 348 347 347 346 345 346 346 347 349 352 353 355 358 0 3 5 6 7 9 10 11 13 15 17 19 23 26 28 31 34 38 42 47 49 49 50 51 52 54 56 59 62 66 70 75 79 82 86 94 102 108 115 122 126 128 129 133 137 138 138 137 135 133 131 130 130 131 133 133 134 135 135 137 138 140 145